Home   Weather   Swindon   Past weeks

Flag for United Kingdom Past Weather in Swindon, England, United Kingdom — Yesterday and Last 2 Weeks

Now
48 °F

Fog.


Feels Like: 46 °F
Forecast: N/A
Wind: 5 mph from South

Location: Brize Norton

Current Time: Dec 6, 2016 at 9:52:28 pm

Latest Report: Dec 6, 2016 at 8:50 pm


Visibility: 1 mi

Pressure: 30.30 "Hg

Humidity: 100%

Dew Point: 48 °F

Location of SwindonLocation

Past Weather in Swindon — Graph

°F

Swindon Temperature Yesterday

Maximum temperature yesterday: 43 °F (at 1:50 pm)
Minimum temperature yesterday: 30 °F (at 4:50 am)
Average temperature yesterday: 36 °F

High & Low Weather Summary for the Past Weeks

 TemperatureHumidityPressure
High50 °F (Nov 25, 1:50 pm)100% (Nov 22, 5:50 am)30.57 "Hg (Nov 22, 5:50 am)
Low21 °F (Nov 30, 4:50 am)46% (Nov 28, 1:50 pm)29.09 "Hg (Nov 21, 8:50 pm)
Average40 °F86%30.22 "Hg
* Reported Nov 21 8:50 pm — Dec 6 8:50 pm, Swindon, Weather by CustomWeather, © 2016

Note: Actual official high and low records may vary slightly from our data, if they occured in-between our weather recording intervals... More about our weather records

Advertising

Swindon Weather History for the Previous 24 Hours

Scroll right to see more
 ConditionsComfort  
Time TempWeatherWind HumidityBarometerVisibility
8:50 pm
Tue, Dec 6
48 °FFog.5 mph100%30.30 "Hg1 mi
7:50 pm46 °FFog.3 mph100%30.30 "Hg1 mi
6:50 pm46 °FFog.2 mph100%30.30 "Hg1 mi
5:50 pm45 °FFog.3 mph100%30.30 "Hg1 mi
4:50 pm45 °FFog.2 mph100%30.30 "Hg1 mi
3:50 pm45 °FDrizzle. Low clouds.No wind100%30.30 "Hg1 mi
2:50 pm45 °FFog.6 mph100%30.27 "Hg1 mi
1:50 pm45 °FDrizzle. Low clouds.3 mph100%30.30 "Hg1 mi
12:50 pm43 °FDrizzle. Low clouds.3 mph100%30.30 "Hg1 mi
11:50 am43 °FDrizzle. Low clouds.3 mph100%30.30 "Hg1 mi
10:50 am41 °FDrizzle. Low clouds.2 mph100%30.33 "Hg1 mi
9:50 am39 °FDrizzle. Dense fog.6 mph100%30.30 "Hg0 mi
8:50 am39 °FDrizzle. Dense fog.2 mph100%30.33 "Hg0 mi
7:50 am39 °FFog.No wind93%30.30 "Hg0 mi
6:50 am39 °FFog.1 mph93%30.30 "Hg0 mi
5:50 am37 °FFog.5 mph100%30.27 "Hg1 mi
4:50 am37 °FFog.7 mph93%30.27 "Hg1 mi
3:50 am39 °FFog.3 mph93%30.27 "Hg1 mi
2:50 am39 °FFog.2 mph93%30.30 "Hg2 mi
1:50 am39 °FFog.3 mph93%30.27 "Hg3 mi
12:50 am37 °FFog.1 mph93%30.27 "Hg2 mi
11:50 pm
Mon, Dec 5
37 °FFog.5 mph93%30.27 "Hg2 mi
10:50 pm37 °FFog.5 mph93%30.27 "Hg2 mi
9:50 pm37 °FFog.5 mph93%30.27 "Hg2 mi
Weather by CustomWeather, © 2016

See weather overviewHow to use our weather pages